Tracking 35048 objects as of 19-Aug-2026
HD Live streaming from Space Station
objects crossing your sky now

COSMOS 57 DEB


COSMOS 57 DEB is no longer on orbit


NORAD ID: 1297
Int'l Code: 1965-012FV
Launch date: February 22, 1965
Source: Commonwealth of Independent States (former USSR) (CIS)
Launch site: TYURATAM MISSILE AND SPACE COMPLEX (TTMTR)
Decay date: 1965-03-22

Note: This is SATELLITE DEBRIS
Your satellite tracking list
Your tracking list is empty




NASA's NSSDC Master Catalog

Two Line Element Set (TLE):
1 01297U 65012 FV 65074.03757832  .00000000 +00000-0 +00000-0 0  9990
2 01297 065.0580 307.7296 0148439 049.7285 311.6019 16.04842402003312
Source of the keplerian elements: AFSPC